Weather History for Indianapolis, IN

Change the Weather History Date:

Thursday, February 21, 2013

  Actual Average Record
Temperature  
Mean Temperature 24 °F 34 °F  
Max Temperature 31 °F 42 °F 68 °F (1930)
Min Temperature 17 °F 26 °F -4 °F (1963)
Degree Days  
Heating Degree Days 41 31  
Month to date heating degree days 727 713  
Since 1 July heating degree days 3791 3934  
Cooling Degree Days 0 0  
Month to date cooling degree days 0 0  
Year to date cooling degree days 0 0  
Moisture  
Dew Point 18 °F    
Average Humidity 72    
Maximum Humidity 85    
Minimum Humidity 58    
Precipitation  
Precipitation 0.33 in 0.08 in 1.53 in (1874)
Month to date precipitation 0.89 1.71  
Year to date precipitation 6.40 4.37  
Snow  
Snow 0.50 in 0.20 in 9.70 in (1912)
Month to date snowfall 2.0 5.2  
Since 1 July snowfall 19.4 21.8  
Snow Depth T in    
Sea Level Pressure  
Sea Level Pressure 30.22 in    
Wind  
Wind Speed 11 mph (East)    
Max Wind Speed 24 mph    
Max Gust Speed 33 mph    
Visibility 8 miles    
Events Rain , Snow    
T = Trace of Precipitation, MM = Missing Value Source: NWS Daily Summary

Daily Weather History Graph

Daily Weather History Graph

Search for Another Location

Airport:

Trip Planner

Search our weather history database for the weather conditions in past years. The results will help you decide how hot, cold, wet, or windy it might be!

Date:

Astronomy

Feb. 21, 2013 Rise Set
Actual Time 7:29 AM EST 6:28 PM EST
Civil Twilight 7:02 AM EST 6:56 PM EST
Nautical Twilight 6:30 AM EST 7:27 PM EST
Astronomical Twilight 5:59 AM EST 7:58 PM EST
Moon 2:43 PM EST (2/21) 4:33 AM EST (2/21)
Length of Visible Light 11h 54m
Length of Day
10h 59m
Waxing Gibbous, 83% of the Moon is Illuminated
Feb 21
Waxing Gibbous
Feb 25
Full
Mar 4
Last Quarter
Mar 11
New
Mar 19
First Quarter

Hourly Weather History & Observations

Time (EST) Temp. Windchill Dew Point Humidity Pressure Visibility Wind Dir Wind Speed Gust Speed Precip Events Conditions
12:54 AM 19.9 °F 10.1 °F 12.9 °F 74% 30.34 in 10.0 mi NE 8.1 mph - N/A   Mostly Cloudy
1:54 AM 19.0 °F - 12.0 °F 74% 30.35 in 10.0 mi Calm Calm - N/A   Scattered Clouds
2:54 AM 18.0 °F 9.8 °F 12.0 °F 78% 30.33 in 10.0 mi NNE 5.8 mph - N/A   Scattered Clouds
3:54 AM 18.0 °F 11.1 °F 12.0 °F 78% 30.33 in 10.0 mi North 4.6 mph - N/A   Mostly Cloudy
4:54 AM 19.9 °F 11.1 °F 15.1 °F 81% 30.32 in 10.0 mi NE 6.9 mph - N/A   Overcast
5:54 AM 21.0 °F 11.4 °F 15.1 °F 78% 30.35 in 10.0 mi North 8.1 mph - N/A   Overcast
6:54 AM 21.0 °F 14.6 °F 15.1 °F 78% 30.37 in 9.0 mi NNE 4.6 mph - 0.00 in Snow Light Snow
7:54 AM 21.0 °F 9.3 °F 16.0 °F 81% 30.34 in 10.0 mi NE 11.5 mph - 0.00 in   Overcast
8:54 AM 21.9 °F 11.0 °F 16.0 °F 78% 30.35 in 10.0 mi ENE 10.4 mph - N/A   Overcast
9:54 AM 23.0 °F 13.9 °F 16.0 °F 74% 30.35 in 9.0 mi East 8.1 mph - N/A   Overcast
10:54 AM 25.0 °F 14.8 °F 15.1 °F 66% 30.32 in 10.0 mi ENE 10.4 mph - N/A   Mostly Cloudy
11:26 AM 26.6 °F 14.7 °F 15.8 °F 64% 30.29 in 10.0 mi East 15.0 mph 18.4 mph N/A   Mostly Cloudy
11:54 AM 26.6 °F 19.1 °F 15.8 °F 64% 30.29 in 10.0 mi East 6.9 mph - N/A   Overcast
12:24 PM 26.6 °F 15.7 °F 15.8 °F 64% 30.27 in 10.0 mi East 12.7 mph - N/A   Overcast
12:47 PM 28.4 °F 19.1 °F 17.6 °F 64% 30.26 in 10.0 mi East 10.4 mph - N/A   Overcast
12:54 PM 28.4 °F 19.7 °F 17.6 °F 64% 30.26 in 10.0 mi ESE 9.2 mph - N/A   Overcast
1:10 PM 28.4 °F 17.5 °F 17.6 °F 64% 30.23 in 10.0 mi ESE 13.8 mph 18.4 mph N/A   Overcast
1:37 PM 30.2 °F 19.3 °F 17.6 °F 60% 30.19 in 10.0 mi East 15.0 mph - N/A   Overcast
1:54 PM 30.0 °F 18.7 °F 18.0 °F 61% 30.19 in 10.0 mi East 16.1 mph 21.9 mph N/A   Overcast
2:54 PM 30.0 °F 19.1 °F 18.0 °F 61% 30.17 in 10.0 mi East 15.0 mph 23.0 mph N/A   Overcast
3:54 PM 30.0 °F 20.0 °F 18.0 °F 61% 30.20 in 10.0 mi East 12.7 mph - N/A   Overcast
4:54 PM 30.0 °F 20.0 °F 19.0 °F 64% 30.18 in 10.0 mi ENE 12.7 mph - N/A   Overcast
5:54 PM 28.9 °F 19.2 °F 19.0 °F 67% 30.20 in 10.0 mi ESE 11.5 mph - N/A   Overcast
6:52 PM 28.4 °F 16.6 °F 19.4 °F 69% 30.14 in 5.0 mi East 16.1 mph - 0.00 in Snow Light Snow
6:54 PM 28.9 °F 17.7 °F 19.9 °F 69% 30.17 in 5.0 mi East 15.0 mph - 0.00 in Snow Light Snow
7:38 PM 28.4 °F 17.0 °F 23.0 °F 80% 30.11 in 4.0 mi East 15.0 mph - 0.06 in Snow Ice Pellets
7:54 PM 28.0 °F 16.5 °F 24.1 °F 85% 30.13 in 3.0 mi East 15.0 mph - 0.10 in Snow Ice Pellets
8:50 PM 28.4 °F 16.6 °F 23.0 °F 80% 30.05 in 2.0 mi East 16.1 mph 28.8 mph 0.07 in Snow Light Snow
8:54 PM 28.0 °F 14.9 °F 23.0 °F 81% 30.08 in 2.0 mi East 19.6 mph 25.3 mph 0.08 in Snow Light Snow
9:07 PM 26.6 °F 13.8 °F 23.0 °F 86% 30.04 in 3.0 mi East 17.3 mph 28.8 mph 0.03 in Snow Light Snow
9:26 PM 28.4 °F 15.1 °F 24.8 °F 86% 30.02 in 4.0 mi East 20.7 mph 29.9 mph 0.06 in Rain Light Freezing Rain
9:54 PM 28.4 °F 13.8 °F 24.8 °F 86% 29.99 in 6.0 mi East 25.3 mph 31.1 mph N/A Rain Light Freezing Rain
10:34 PM 28.4 °F 15.1 °F 24.8 °F 86% 29.99 in 7.0 mi East 20.7 mph 27.6 mph 0.00 in Rain Light Freezing Rain
10:54 PM 28.0 °F 16.5 °F 25.0 °F 88% 30.02 in 5.0 mi East 15.0 mph - 0.02 in Rain Light Freezing Rain
11:54 PM 28.9 °F 17.7 °F 26.1 °F 89% 30.02 in 5.0 mi ESE 15.0 mph - 0.03 in Rain Light Freezing Rain